Location: Baia Mare
(47.6567°N, 23.5850°E)
Time: 15:00:00
(UTC+03:00)

ISS - Pass Details

Date: 25 July 2018
Orbit: 402 x 408 km, 51.6° (Epoch: 21 July)

Event Time Altitude Azimuth Distance (km) Brightness Sun altitude
Rises 02:08:11 0° 293° (WNW) 2,329 0.2 -22.1°
Reaches altitude 10° 02:10:17 10° 292° (WNW) 1,467 -0.9 -22.1°
Enters shadow 02:10:39 13° 291° (WNW) 1,312 -1.1 -22.1°
